When you browse on this site, cookies collect data to enhance your experience and personalize the content and advertising you see.
Visit our Privacy Policy to learn more. By continuing to use the site, you agree to this use of cookies and data.
  • In Austria
  • List of Countries
  • For 7 days
  • Water Temperature
  • Weather Map
  • News
  • Weather Widgets
  • user-avatar
    Login

    Hourly Weather Ricaurte

    Today, 20 November, Wednesday

    Time Temperature Precipitation Wind Pressure Humidity
    00:00 +24°C° 2.3 mm 0 mps 737 mmHg 90%
    01:00 +23°C° 2.3 mm 0 mps 736 mmHg 93%
    02:00 +23°C° 2 mm 0 mps 736 mmHg 94%
    03:00 +23°C° 2 mm 0 mps 736 mmHg 95%
    04:00 +23°C° 2 mm 0 mps 736 mmHg 96%
    05:00 +23°C° 1.4 mm 0 mps 736 mmHg 96%
    06:00 +23°C° 1.4 mm 0 mps 737 mmHg 95%
    07:00 +23°C° 1.4 mm 0 mps 737 mmHg 95%
    08:00 +25°C° 1.3 mm 1 mps 737 mmHg 95%
    09:00 +25°C° 1.3 mm 1 mps 738 mmHg 94%
    10:00 +25°C° 1.3 mm 2 mps 738 mmHg 94%
    11:00 +27°C° 0.4 mm 1 mps 737 mmHg 89%
    12:00 +28°C° 0.4 mm 1 mps 736 mmHg 83%
    13:00 +29°C° 0.4 mm 1 mps 735 mmHg 78%
    14:00 +29°C° 0.1 mm 1 mps 735 mmHg 76%
    15:00 +29°C° 0.1 mm 1 mps 734 mmHg 75%
    16:00 +30°C° 0.1 mm 1 mps 734 mmHg 74%
    17:00 +28°C° 0.1 mm 1 mps 734 mmHg 78%
    18:00 +25°C° 0.1 mm 0 mps 735 mmHg 82%
    19:00 +24°C° 0.1 mm 0 mps 735 mmHg 87%
    20:00 +23°C° 0.2 mm 0 mps 736 mmHg 88%
    21:00 +23°C° 0.2 mm 0 mps 737 mmHg 88%
    22:00 +23°C° 0.2 mm 0 mps 737 mmHg 89%
    23:00 +23°C° 0.1 mm 0 mps 737 mmHg 89%

    Tomorrow, 21 November, Thursday

    Time Temperature Precipitation Wind Pressure Humidity
    00:00 +22°C° 0.1 mm 0 mps 736 mmHg 89%
    01:00 +22°C° 0.1 mm 0 mps 736 mmHg 89%
    02:00 +22°C° 0 mm 0 mps 736 mmHg 89%
    03:00 +22°C° 0 mm 0 mps 736 mmHg 89%
    04:00 +22°C° 0 mm 0 mps 736 mmHg 89%
    05:00 +22°C° 0.1 mm 0 mps 736 mmHg 88%
    06:00 +23°C° 0.1 mm 0 mps 737 mmHg 87%
    07:00 +23°C° 0.1 mm 0 mps 737 mmHg 86%
    08:00 +25°C° 0.2 mm 0 mps 737 mmHg 83%
    09:00 +26°C° 0.2 mm 0 mps 737 mmHg 80%
    10:00 +29°C° 0.2 mm 1 mps 737 mmHg 76%
    11:00 +30°C° 0.3 mm 1 mps 736 mmHg 73%
    12:00 +29°C° 0.3 mm 0 mps 735 mmHg 69%
    13:00 +30°C° 0.3 mm 0 mps 734 mmHg 65%
    14:00 +30°C° 0.2 mm 0 mps 734 mmHg 65%
    15:00 +30°C° 0.2 mm 0 mps 734 mmHg 64%
    16:00 +32°C° 0.2 mm 1 mps 733 mmHg 64%
    17:00 +30°C° 0.3 mm 1 mps 734 mmHg 69%
    18:00 +29°C° 0.3 mm 1 mps 734 mmHg 74%
    19:00 +27°C° 0.3 mm 1 mps 735 mmHg 79%
    20:00 +26°C° 0.4 mm 1 mps 735 mmHg 81%
    21:00 +26°C° 0.4 mm 1 mps 736 mmHg 83%
    22:00 +25°C° 0.4 mm 1 mps 736 mmHg 84%
    23:00 +25°C° 0.2 mm 1 mps 736 mmHg 85%

    Day after tomorrow, 22 November, Friday

    Time Temperature Precipitation Wind Pressure Humidity
    00:00 +25°C° 0.2 mm 1 mps 736 mmHg 86%
    01:00 +24°C° 0.2 mm 1 mps 735 mmHg 87%
    02:00 +24°C° 0.5 mm 1 mps 735 mmHg 88%
    03:00 +22°C° 0.5 mm 0 mps 735 mmHg 88%
    04:00 +22°C° 0.5 mm 0 mps 735 mmHg 89%
    05:00 +22°C° 0.1 mm 0 mps 735 mmHg 88%
    06:00 +23°C° 0.1 mm 0 mps 736 mmHg 86%
    07:00 +23°C° 0.1 mm 0 mps 736 mmHg 85%
    08:00 +25°C° 0 mm 0 mps 737 mmHg 81%
    09:00 +28°C° 0 mm 1 mps 737 mmHg 76%
    10:00 +29°C° 0 mm 1 mps 737 mmHg 72%
    11:00 +30°C° 0.1 mm 1 mps 736 mmHg 69%
    12:00 +31°C° 0.1 mm 1 mps 735 mmHg 66%
    13:00 +32°C° 0.1 mm 1 mps 734 mmHg 63%
    14:00 +32°C° 0.3 mm 1 mps 734 mmHg 63%
    15:00 +32°C° 0.3 mm 1 mps 734 mmHg 64%
    16:00 +32°C° 0.3 mm 1 mps 733 mmHg 64%
    17:00 +30°C° 0.2 mm 1 mps 734 mmHg 69%
    18:00 +29°C° 0.2 mm 1 mps 734 mmHg 74%
    19:00 +27°C° 0.2 mm 1 mps 735 mmHg 78%
    20:00 +27°C° 0.2 mm 1 mps 735 mmHg 80%
    21:00 +26°C° 0.2 mm 1 mps 736 mmHg 81%
    22:00 +26°C° 0.2 mm 1 mps 736 mmHg 82%
    23:00 +25°C° 0.9 mm 1 mps 736 mmHg 85%

    23 November, Saturday

    Time Temperature Precipitation Wind Pressure Humidity
    00:00 +25°C° 0.9 mm 1 mps 736 mmHg 87%
    01:00 +23°C° 0.9 mm 0 mps 735 mmHg 90%
    02:00 +23°C° 0.9 mm 0 mps 735 mmHg 92%
    03:00 +22°C° 0.9 mm 0 mps 735 mmHg 93%
    04:00 +22°C° 0.9 mm 0 mps 735 mmHg 95%
    05:00 +23°C° 0.2 mm 0 mps 736 mmHg 94%
    06:00 +23°C° 0.2 mm 0 mps 736 mmHg 94%
    07:00 +23°C° 0.2 mm 0 mps 737 mmHg 94%
    08:00 +24°C° 0.1 mm 0 mps 737 mmHg 90%
    09:00 +27°C° 0.1 mm 1 mps 737 mmHg 86%
    10:00 +28°C° 0.1 mm 1 mps 737 mmHg 82%
    11:00 +29°C° 0.2 mm 1 mps 736 mmHg 77%
    12:00 +30°C° 0.2 mm 1 mps 735 mmHg 72%
    13:00 +31°C° 0.2 mm 2 mps 734 mmHg 67%
    14:00 +31°C° 0.2 mm 2 mps 734 mmHg 68%
    15:00 +31°C° 0.2 mm 2 mps 733 mmHg 68%
    16:00 +31°C° 0.2 mm 2 mps 733 mmHg 69%
    17:00 +29°C° 0.4 mm 1 mps 733 mmHg 74%
    18:00 +28°C° 0.4 mm 1 mps 734 mmHg 79%
    19:00 +26°C° 0.4 mm 1 mps 735 mmHg 83%
    20:00 +26°C° 0.5 mm 1 mps 735 mmHg 85%
    21:00 +25°C° 0.5 mm 1 mps 736 mmHg 86%
    22:00 +25°C° 0.5 mm 1 mps 736 mmHg 87%
    23:00 +23°C° 0.3 mm 0 mps 736 mmHg 88%

    24 November, Sunday

    Time Temperature Precipitation Wind Pressure Humidity
    00:00 +23°C° 0.3 mm 0 mps 736 mmHg 89%
    01:00 +23°C° 0.3 mm 0 mps 736 mmHg 90%
    02:00 +22°C° 0.3 mm 0 mps 735 mmHg 91%
    03:00 +22°C° 0.3 mm 0 mps 735 mmHg 92%
    04:00 +22°C° 0.3 mm 0 mps 735 mmHg 93%
    05:00 +22°C° 0.1 mm 0 mps 735 mmHg 92%
    06:00 +23°C° 0.1 mm 0 mps 736 mmHg 91%
    07:00 +23°C° 0.1 mm 0 mps 736 mmHg 90%
    08:00 +24°C° 0.5 mm 0 mps 736 mmHg 86%
    09:00 +28°C° 0.5 mm 1 mps 736 mmHg 82%
    10:00 +29°C° 0.5 mm 1 mps 736 mmHg 78%
    11:00 +30°C° 0.2 mm 1 mps 735 mmHg 73%
    12:00 +31°C° 0.2 mm 1 mps 734 mmHg 68%
    13:00 +32°C° 0.2 mm 1 mps 734 mmHg 64%
    14:00 +32°C° 0.1 mm 1 mps 733 mmHg 63%
    15:00 +32°C° 0.1 mm 1 mps 733 mmHg 63%
    16:00 +30°C° 0.1 mm 0 mps 732 mmHg 63%
    17:00 +30°C° 0.2 mm 1 mps 733 mmHg 68%
    18:00 +29°C° 0.2 mm 1 mps 734 mmHg 74%
    19:00 +27°C° 0.2 mm 1 mps 734 mmHg 80%
    20:00 +27°C° 0.5 mm 1 mps 735 mmHg 81%
    21:00 +26°C° 0.5 mm 1 mps 735 mmHg 83%
    22:00 +26°C° 0.5 mm 1 mps 736 mmHg 85%
    23:00 +26°C° 0.7 mm 1 mps 735 mmHg 87%

    25 November, Monday

    Time Temperature Precipitation Wind Pressure Humidity
    00:00 +25°C° 0.7 mm 1 mps 735 mmHg 88%
    01:00 +23°C° 0.7 mm 0 mps 735 mmHg 90%
    02:00 +23°C° 0.1 mm 0 mps 734 mmHg 91%
    03:00 +23°C° 0.1 mm 0 mps 734 mmHg 91%
    04:00 +22°C° 0.1 mm 0 mps 734 mmHg 92%
    05:00 +23°C° 0.3 mm 0 mps 735 mmHg 91%
    06:00 +23°C° 0.3 mm 0 mps 735 mmHg 91%
    07:00 +23°C° 0.3 mm 0 mps 736 mmHg 90%
    08:00 +25°C° 0.3 mm 0 mps 735 mmHg 85%
    09:00 +28°C° 0.3 mm 1 mps 735 mmHg 80%
    10:00 +30°C° 0.3 mm 1 mps 735 mmHg 75%
    11:00 +31°C° 0.2 mm 1 mps 734 mmHg 71%
    12:00 +32°C° 0.2 mm 1 mps 733 mmHg 66%
    13:00 +33°C° 0.2 mm 1 mps 732 mmHg 62%
    14:00 +33°C° 0 mm 1 mps 732 mmHg 62%
    15:00 +30°C° 0 mm 0 mps 731 mmHg 62%
    16:00 +30°C° 0 mm 0 mps 731 mmHg 62%
    17:00 +29°C° 0.3 mm 0 mps 731 mmHg 68%
    18:00 +29°C° 0.3 mm 1 mps 732 mmHg 74%
    19:00 +27°C° 0.3 mm 1 mps 733 mmHg 80%
    20:00 +27°C° 0.5 mm 1 mps 733 mmHg 82%
    21:00 +27°C° 0.5 mm 1 mps 734 mmHg 83%
    22:00 +26°C° 0.5 mm 1 mps 735 mmHg 85%
    23:00 +26°C° 0.5 mm 1 mps 734 mmHg 86%
    Show more